TimeEST,TemperatureF,Dew PointF,Humidity,Sea Level PressureIn,VisibilityMPH,Wind Direction,Wind SpeedMPH,Gust SpeedMPH,PrecipitationIn,Events,Conditions,WindDirDegrees,DateUTC
12:08 AM,59.0,50.0,72,30.00,10.0,NNW,8.1,-,N/A,Rain,Light Rain,330,2013-03-02 05:08:00
12:34 AM,59.0,50.0,72,29.99,10.0,NNW,8.1,-,N/A,,Overcast,330,2013-03-02 05:34:00
12:46 AM,59.0,50.0,72,29.99,10.0,NNW,6.9,-,N/A,Rain,Light Rain,330,2013-03-02 05:46:00
12:55 AM,59.0,50.0,72,29.99,10.0,NNW,9.2,-,N/A,,Mostly Cloudy,330,2013-03-02 05:55:00
12:58 AM,59.0,50.0,72,30.00,10.0,NNW,10.4,-,N/A,,Mostly Cloudy,330,2013-03-02 05:58:00
1:58 AM,59.0,48.2,67,29.99,10.0,NW,9.2,-,N/A,,Overcast,320,2013-03-02 06:58:00
2:09 AM,57.2,48.2,72,29.98,10.0,NW,9.2,-,N/A,Rain,Light Rain,320,2013-03-02 07:09:00
2:19 AM,57.2,48.2,72,29.98,10.0,NNW,10.4,-,N/A,,Overcast,330,2013-03-02 07:19:00
2:36 AM,57.2,46.4,67,29.98,10.0,NW,11.5,-,N/A,Rain,Light Rain,320,2013-03-02 07:36:00
2:40 AM,57.2,46.4,67,29.98,10.0,NW,11.5,-,N/A,,Overcast,320,2013-03-02 07:40:00
2:58 AM,57.2,44.6,63,29.99,10.0,NW,11.5,-,N/A,,Overcast,320,2013-03-02 07:58:00
3:58 AM,57.2,39.2,51,29.99,10.0,NNW,15.0,-,N/A,,Overcast,340,2013-03-02 08:58:00
4:58 AM,55.4,41.0,58,30.00,10.0,NNW,12.7,-,N/A,,Mostly Cloudy,330,2013-03-02 09:58:00
5:58 AM,55.9,41.2,58,30.02,10.0,NW,11.5,-,N/A,,Overcast,320,2013-03-02 10:58:00
6:58 AM,55.8,41.4,58,30.02,10.0,NNW,13.8,-,N/A,,Scattered Clouds,330,2013-03-02 11:58:00
7:58 AM,55.4,41.0,58,30.04,10.0,North,12.7,-,N/A,,Overcast,350,2013-03-02 12:58:00
8:58 AM,56.3,41.4,57,30.06,10.0,North,12.7,-,N/A,,Overcast,360,2013-03-02 13:58:00
9:58 AM,57.0,42.8,59,30.06,10.0,North,10.4,-,N/A,,Mostly Cloudy,350,2013-03-02 14:58:00
10:06 AM,57.2,42.8,59,30.03,10.0,North,13.8,-,N/A,,Mostly Cloudy,10,2013-03-02 15:06:00
10:15 AM,57.2,42.8,59,30.04,10.0,North,10.4,-,N/A,Rain,Light Rain,10,2013-03-02 15:15:00
10:28 AM,57.2,42.8,59,30.05,10.0,North,8.1,-,N/A,,Scattered Clouds,10,2013-03-02 15:28:00
10:58 AM,58.3,43.9,59,30.05,10.0,NNE,8.1,-,0.00,,Clear,20,2013-03-02 15:58:00
11:58 AM,59.0,42.1,53,30.04,10.0,NW,9.2,-,N/A,,Partly Cloudy,320,2013-03-02 16:58:00
12:58 PM,58.5,43.2,57,30.02,10.0,NW,6.9,-,N/A,,Scattered Clouds,320,2013-03-02 17:58:00
1:58 PM,64.4,44.6,49,29.99,10.0,Variable,5.8,-,N/A,,Partly Cloudy,0,2013-03-02 18:58:00
2:57 PM,68.0,44.6,43,29.97,10.0,NW,18.4,25.3,N/A,,Partly Cloudy,310,2013-03-02 19:57:00
2:58 PM,67.8,43.7,42,29.98,10.0,WNW,15.0,25.3,N/A,,Partly Cloudy,300,2013-03-02 19:58:00
3:57 PM,66.2,42.8,43,29.97,10.0,NNW,19.6,25.3,N/A,,Partly Cloudy,330,2013-03-02 20:57:00
4:58 PM,64.4,41.0,42,29.99,10.0,NW,16.1,25.3,N/A,,Clear,310,2013-03-02 21:58:00
5:58 PM,62.6,41.0,45,30.01,10.0,NW,12.7,-,N/A,,Partly Cloudy,320,2013-03-02 22:58:00
6:57 PM,57.2,42.8,59,30.02,10.0,NW,5.8,-,N/A,,Partly Cloudy,320,2013-03-02 23:57:00
7:57 PM,57.2,41.0,55,30.04,10.0,NW,8.1,-,N/A,,Clear,320,2013-03-03 00:57:00
8:58 PM,55.4,41.0,58,30.07,10.0,NNW,8.1,-,N/A,,Clear,330,2013-03-03 01:58:00
9:58 PM,53.6,41.0,62,30.07,10.0,WNW,4.6,-,N/A,,Clear,300,2013-03-03 02:58:00
10:58 PM,51.8,41.0,67,30.07,10.0,West,2.3,-,N/A,,Clear,270,2013-03-03 03:58:00
11:58 PM,50.0,46.4,87,30.05,10.0,SW,1.2,-,N/A,,Partly Cloudy,220,2013-03-03 04:58:00